CZ-6A DEB

Satellite information

Favourite Embed

Satellite Type and Status

DEBRISIN ORBIT

Key statistics

Satellite CZ-6A DEB at a glance.

Uptime

274

Days in orbit

Revolutions

≈ 14.4

Per day

Orbit

LEO

Low Earth Orbit

Inclination

89.0

Latest

Satellite identification and parameters

Extended collection of information and parameters for CZ-6A DEB.

Object identification

Identified? True

Debris? True

Object name: CZ-6A DEB

International designator: 2024-140CP

Object number (NORAD): 60686

Object ID (CCSDS): 60686

Country: PEOPLES REPUBLIC OF CHINA (PRC)

Current information (Y/N): Y

RCS size: MEDIUM

Orbital parameters

Period: 100.05 minutes

Inclination: 88.9893 deg

SMA: 7139.035 km

Apoapsis: 798.497 km

Periapsis: 723.303 km

RAAN: 319.3005 deg

Eccentricy: 0.0052664

Argument of periapsis: 168.0115 deg

Mean anomaly: 192.2354 deg

Mean motion: 14.39273968 rev/day

Mean motion (dot): 0.00003492 rev/day2

B* drag term: 0.0011028 1/REarth

Two-line elements (TLE)

Creation date: May 6, 2025, 3:54 a.m.

Reference frame: TEME

Reference center: EARTH

Epoch: May 5, 2025, 7:12 p.m. UTC

TLE line 0: 0 CZ-6A DEB

TLE line 1: 1 60686U 24140CP 25125.80052036 .00003492 00000-0 11028-2 0 9998

TLE line 2: 2 60686 88.9893 319.3005 0052664 168.0115 192.2354 14.39273968 38749

Live tracking on map

Real-time ground track for satellite CZ-6A DEB.

In-orbit conjunctions

A list of the most updated potential collisions computed for object CZ-6A DEB.

Target Orbit TCA Probability of collision Miss distance Type
CZ-6A DEB SSO 2025-03-20 02:07:10 0.0001501856 336.0 (m) DEBRIS
NOAA 16 DEB SSO 2025-02-10 13:11:13 0.0002452439 755.0 (m) DEBRIS
SL-16 DEB LEO 2024-12-27 19:13:45 0.0001123095 457.0 (m) DEBRIS
THORAD AGENA D DEB SSO 2024-12-10 02:06:48 0.00158246 145.0 (m) DEBRIS
OXP 1 LEO 2024-12-05 20:24:48 0.0003338709 920.0 (m) PAYLOAD

Associated space launch

18 Low Earth Orbit communication satellites with Ku, Q and V band payloads for the G60 constellation operated by Shanghai Spacecom Satellite Technology (SSST) with funding backed by the Shanghai local government. Initial constellation will consist of 1296 satellites by 2027 with long term plans to expand it to 12000 satellites.

CZ-6A DEB was lifted into orbit during the mission ‘Long March 6A | G60 Polar Group 01’, on board a Long March 6A space rocket.

The launch took place on Aug. 6, 2024, 6:42 a.m. from Launch Complex 9A.

For more information about the launch, click the button.

Launch to space Long March 6A | G60 Polar Group 01
Long March 6A | G60 Polar Group 01

Agency: N/A

Status: Launch Successful

Launch date: Aug. 6, 2024, 6:42 a.m. UTC

Rocket: Long March 6A

Launch pad: Launch Complex 9A

Location: Taiyuan Satellite Launch Center, People's Republic of China

...

Latest news about this satellite

News about space launch
Brightness of first Chinese broadband constellation satellites alarms astronomers

The first satellites of a Chinese broadband constellation are significantly brighter than those of Western systems, posing a new challenge for astronomers.

News about space launch
Chinese rocket stage breaks up into cloud of more than 700 pieces of space debris

HELSINKI — A Chinese Long March 6A rocket’s upper stage has fragmented into a cloud of over 700 pieces of space debris, adding to concerns about long-term orbital safety. China […]

News about space launch
China's Thousand Sails Megaconstellation Kicks Off with Dangerous Debris Field

China's Thousand Sails Megaconstellation Kicks Off with Dangerous Debris Field


Newsletter sign-up

Weekly statistics, charts and insights to help you stay on top of the space industry.